GW5612 Weather Reports


Display with metric or nautical units.
time (UTC)temp
F
wind
direction
speed
MPH
gust
MPH
rain 1hr
in
rain 24hr
in
rain mn
in
humidity
%
barometer
mb
20260505153007 81 109 0.0 17.0 0.00 0.00 0.00 38 1010.7
20260505152504 81 91 0.0 7.0 0.00 0.00 0.00 38 1010.7
20260505152005 80 126 1.0 7.0 0.00 0.00 0.00 39 1010.8
20260505151512 80 105 0.0 3.0 0.00 0.00 0.00 39 1010.7
20260505151004 80 127 0.0 6.0 0.00 0.00 0.00 39 1010.8
20260505150508 80 154 0.0 6.0 0.00 0.00 0.00 39 1010.9
20260505140511 73 131 0.0 11.0 0.00 0.00 0.00 48 1011.5
20260505125002 68 115 0.0 7.0 0.00 0.00 0.00 56 1011.8
20260505124504 68 28 0.0 10.0 0.00 0.00 0.00 56 1011.9
20260505124003 68 174 1.0 10.0 0.00 0.00 0.00 54 1011.8
20260505123507 68 184 0.0 2.0 0.00 0.00 0.00 57 1011.8
20260505123003 67 131 0.0 0.0 0.00 0.00 0.00 58 1011.6
20260505122503 67 72 0.0 0.0 0.00 0.00 0.00 58 1011.4
20260505122004 66 143 0.0 0.0 0.00 0.00 0.00 60 1011.5
20260505121507 66 117 0.0 1.0 0.00 0.00 0.00 61 1011.4
20260505121004 65 129 0.0 9.0 0.00 0.00 0.00 61 1011.5
20260505120508 64 152 0.0 9.0 0.00 0.00 0.00 63 1011.4
20260505120006 64 113 0.0 0.0 0.00 0.00 0.00 65 1011.4
20260505115504 62 100 0.0 0.0 0.00 0.00 0.00 67 1011.4
20260505115004 61 127 0.0 0.0 0.00 0.00 0.00 69 1011.4
20260505114516 59 100 0.0 0.0 0.00 0.00 0.00 68 1011.4
20260505114004 58 118 0.0 0.0 0.00 0.00 0.00 66 1011.5
20260505113501 58 118 0.0 0.0 0.00 0.00 0.00 63 1011.4
20260505113010 57 118 0.0 0.0 0.00 0.00 0.00 58 1011.3
20260505112503 56 118 0.0 0.0 0.00 0.00 0.00 59 1011.3
20260505112005 55 118 0.0 0.0 0.00 0.00 0.00 58 1011.1
20260505111507 55 118 0.0 0.0 0.00 0.00 0.00 57 1011.1
20260505111004 54 118 0.0 0.0 0.00 0.00 0.00 57 1011.1
20260505110503 54 118 0.0 0.0 0.00 0.00 0.00 53 1011.2
20260505102002 51 118 0.0 0.0 0.00 0.00 0.00 44 1011.0
20260505101505 51 118 0.0 0.0 0.00 0.00 0.00 43 1010.9
20260505101004 51 118 0.0 0.0 0.00 0.00 0.00 46 1010.8
20260505100504 51 118 0.0 0.0 0.00 0.00 0.00 46 1010.7
20260505100003 51 118 0.0 0.0 0.00 0.00 0.00 48 1010.8
20260505095507 51 118 0.0 0.0 0.00 0.00 0.00 52 1010.6
20260505095004 52 118 0.0 0.0 0.00 0.00 0.00 54 1010.5
20260505094506 52 118 0.0 0.0 0.00 0.00 0.00 54 1010.6
20260505094003 52 118 0.0 0.0 0.00 0.00 0.00 54 1010.7
20260505093503 52 118 0.0 0.0 0.00 0.00 0.00 54 1010.8
20260505093025 52 118 0.0 0.0 0.00 0.00 0.00 57 1010.7
20260505092504 53 118 0.0 0.0 0.00 0.00 0.00 58 1010.7
20260505092004 53 118 0.0 0.0 0.00 0.00 0.00 59 1010.7
20260505091516 53 118 0.0 0.0 0.00 0.00 0.00 60 1010.6
20260505091007 53 118 0.0 0.0 0.00 0.00 0.00 60 1010.6
20260505090506 54 118 0.0 0.0 0.00 0.00 0.00 61 1010.3
20260505090004 54 118 0.0 0.0 0.00 0.00 0.00 62 1010.2
20260505085503 54 118 0.0 0.0 0.00 0.00 0.00 64 1010.1
20260505085003 54 118 0.0 0.0 0.00 0.00 0.00 65 1010.1
20260505084507 55 118 0.0 0.0 0.00 0.00 0.00 66 1010.1
20260505084004 55 118 0.0 0.0 0.00 0.00 0.00 67 1010.1
20260505083502 55 118 0.0 0.0 0.00 0.00 0.00 67 1010.2
20260505083008 56 118 0.0 0.0 0.00 0.00 0.00 68 1010.2
20260505082508 56 118 0.0 0.0 0.00 0.00 0.00 68 1010.2
20260505082003 56 118 0.0 0.0 0.00 0.00 0.00 69 1010.2
20260505081521 57 118 0.0 0.0 0.00 0.00 0.00 69 1010.2
20260505081007 57 118 0.0 0.0 0.00 0.00 0.00 69 1010.2
20260505080507 57 118 0.0 0.0 0.00 0.00 0.00 69 1010.2
20260505080020 57 118 0.0 0.0 0.00 0.00 0.00 69 1010.3
20260505075508 58 118 0.0 0.0 0.00 0.00 0.00 69 1010.4
20260505075007 58 118 0.0 0.0 0.00 0.00 0.00 69 1010.4
20260505074507 58 118 0.0 0.0 0.00 0.00 0.00 69 1010.4
20260505074003 58 118 0.0 0.0 0.00 0.00 0.00 68 1010.4
20260505073504 59 118 0.0 0.0 0.00 0.00 0.00 68 1010.4
20260505073008 59 118 0.0 0.0 0.00 0.00 0.00 67 1010.3
20260505072502 59 118 0.0 0.0 0.00 0.00 0.00 67 1010.2
20260505072003 60 118 0.0 0.0 0.00 0.00 0.00 66 1010.2
20260505071511 60 118 0.0 0.0 0.00 0.00 0.00 66 1010.2
20260505071006 60 120 0.0 0.0 0.00 0.00 0.00 65 1010.2
20260505070504 61 113 0.0 0.0 0.00 0.00 0.00 65 1010.2
20260505070016 60 120 0.0 0.0 0.00 0.00 0.00 65 1010.3
20260505065508 60 113 0.0 0.0 0.00 0.00 0.00 64 1010.2
20260505065007 60 134 0.0 0.0 0.00 0.00 0.00 64 1010.2
20260505064525 60 119 0.0 0.0 0.00 0.00 0.00 64 1010.2
20260505064007 60 122 0.0 0.0 0.00 0.00 0.00 65 1010.2
20260505063507 60 147 0.0 0.0 0.00 0.00 0.00 64 1010.2
20260505063004 61 112 0.0 0.0 0.00 0.00 0.00 64 1010.2
20260505062505 60 126 0.0 0.0 0.00 0.00 0.00 64 1010.3
20260505062003 61 116 0.0 0.0 0.00 0.00 0.00 63 1010.2
20260505061507 61 120 0.0 0.0 0.00 0.00 0.00 63 1010.2
20260505061006 61 120 0.0 4.0 0.00 0.00 0.00 62 1010.2
20260505060504 61 117 0.0 4.0 0.00 0.00 0.00 62 1010.2
20260505060025 61 104 0.0 0.0 0.00 0.00 0.00 62 1010.2
20260505055507 61 124 0.0 6.0 0.00 0.00 0.00 62 1010.2
20260505055006 61 108 0.0 6.0 0.00 0.00 0.00 62 1010.2
20260505054531 61 125 0.0 4.0 0.00 0.00 0.00 62 1010.2
20260505054012 61 112 0.0 0.0 0.00 0.00 0.00 62 1010.1
20260505053507 61 122 0.0 0.0 0.00 0.00 0.00 62 1010.2
20260505053020 61 126 0.0 0.0 0.00 0.00 0.00 61 1010.2
20260505052507 61 118 0.0 1.0 0.00 0.00 0.00 60 1010.3
20260505052011 61 140 0.0 2.0 0.00 0.00 0.00 60 1010.3
20260505051524 61 96 0.0 2.0 0.00 0.00 0.00 60 1010.2
20260505051004 61 121 0.0 1.0 0.00 0.00 0.00 60 1010.3
20260505050508 61 113 0.0 1.0 0.00 0.00 0.00 60 1010.3
20260505041521 60 103 0.0 0.0 0.00 0.00 0.00 57 1010.2
20260505041007 60 123 0.0 0.0 0.00 0.00 0.00 57 1010.2
20260505040509 61 79 0.0 0.0 0.00 0.00 0.00 57 1010.2
20260505040025 60 158 0.0 0.0 0.00 0.00 0.00 56 1010.2
20260505035508 61 131 0.0 0.0 0.00 0.00 0.00 55 1010.2
20260505035004 61 36 0.0 0.0 0.00 0.00 0.00 55 1010.2
20260505034512 61 192 0.0 0.0 0.00 0.00 0.00 55 1010.2
20260505034005 61 107 0.0 0.0 0.00 0.00 0.00 55 1010.2
20260505033504 61 108 0.0 0.0 0.00 0.00 0.00 56 1010.1
20260505033018 61 203 0.0 0.0 0.00 0.00 0.00 56 1010.2
20260505032508 61 129 0.0 0.0 0.00 0.00 0.00 55 1010.3
20260505032010 61 92 0.0 0.0 0.00 0.00 0.00 54 1010.3
20260505031521 61 122 0.0 0.0 0.00 0.00 0.00 55 1010.3
20260505031008 61 139 0.0 0.0 0.00 0.00 0.00 56 1010.2
20260505030506 60 100 0.0 0.0 0.00 0.00 0.00 57 1010.2
20260505030028 60 122 0.0 0.0 0.00 0.00 0.00 57 1010.1
20260505025508 60 127 0.0 0.0 0.00 0.00 0.00 58 1010.3
20260505025010 60 108 0.0 0.0 0.00 0.00 0.00 59 1010.4
20260505024528 59 120 0.0 0.0 0.00 0.00 0.00 60 1010.4
20260505024008 59 129 0.0 0.0 0.00 0.00 0.00 60 1010.5
20260505023505 59 120 0.0 0.0 0.00 0.00 0.00 60 1010.6
20260505023012 59 109 0.0 0.0 0.00 0.00 0.00 61 1010.5
20260505022503 58 100 0.0 0.0 0.00 0.00 0.00 60 1010.6
20260505022002 58 100 0.0 0.0 0.00 0.00 0.00 60 1010.6
20260505021503 59 100 0.0 0.0 0.00 0.00 0.00 59 1010.6
20260505021002 59 100 0.0 0.0 0.00 0.00 0.00 57 1010.6
20260505020502 60 100 0.0 0.0 0.00 0.00 0.00 57 1010.6
20260505020002 60 100 0.0 0.0 0.00 0.00 0.00 57 1010.6
20260505015504 60 100 0.0 0.0 0.00 0.00 0.00 58 1010.6
20260505015004 59 105 0.0 0.0 0.00 0.00 0.00 60 1010.5
20260505014508 59 105 0.0 0.0 0.00 0.00 0.00 59 1010.6
20260505014003 59 105 0.0 0.0 0.00 0.00 0.00 60 1010.5
20260505013504 58 91 0.0 0.0 0.00 0.00 0.00 62 1010.6
20260505013006 58 91 0.0 0.0 0.00 0.00 0.00 63 1010.6
20260505012504 58 91 0.0 0.0 0.00 0.00 0.00 62 1010.5
20260505012005 58 91 0.0 0.0 0.00 0.00 0.00 59 1010.6
20260505011519 58 91 0.0 0.0 0.00 0.00 0.00 60 1010.4
20260505011006 59 91 0.0 0.0 0.00 0.00 0.00 61 1010.3
20260505010502 59 91 0.0 0.0 0.00 0.00 0.00 57 1010.2
20260505010003 60 91 0.0 0.0 0.00 0.00 0.00 56 1010.2
20260505005504 60 91 0.0 0.0 0.00 0.00 0.00 56 1010.1
20260505005004 61 91 0.0 0.0 0.00 0.00 0.00 51 1010.1
20260505004514 62 91 0.0 0.0 0.00 0.00 0.00 51 1010.1
20260505004003 62 91 0.0 0.0 0.00 0.00 0.00 50 1010.0
20260505003507 63 91 0.0 0.0 0.00 0.00 0.00 50 1010.0
20260505003007 63 91 0.0 0.0 0.00 0.00 0.00 49 1010.0
20260505002504 64 91 0.0 0.0 0.00 0.00 0.00 48 1010.0
20260505002005 65 91 0.0 0.0 0.00 0.00 0.00 47 1010.0
20260505001512 65 103 0.0 0.0 0.00 0.00 0.00 45 1009.9
20260505001005 66 103 0.0 0.0 0.00 0.00 0.00 44 1009.8
20260505000505 67 103 0.0 0.0 0.00 0.00 0.00 44 1009.8
20260505000020 67 108 0.0 0.0 0.00 0.00 0.00 43 1009.8
20260504235505 67 119 0.0 1.0 0.00 0.00 0.00 41 1009.8
20260504235002 68 99 0.0 1.0 0.00 0.00 0.00 40 1009.8
20260504234503 68 120 0.0 0.0 0.00 0.00 0.00 39 1009.8
20260504234003 69 117 0.0 1.0 0.00 0.00 0.00 39 1009.7
20260504233503 69 121 0.0 3.0 0.00 0.00 0.00 38 1009.7
20260504233004 69 126 0.0 8.0 0.00 0.00 0.00 38 1009.5
20260504232504 70 131 0.0 10.0 0.00 0.00 0.00 37 1009.5
20260504232004 70 68 0.0 10.0 0.00 0.00 0.00 37 1009.6
20260504231523 71 134 0.0 4.0 0.00 0.00 0.00 36 1009.5
20260504231003 71 127 0.0 2.0 0.00 0.00 0.00 36 1009.5
20260504230503 71 99 0.0 7.0 0.00 0.00 0.00 36 1009.5
20260504230012 71 141 0.0 7.0 0.00 0.00 0.00 36 1009.5
20260504225507 71 127 0.0 5.0 0.00 0.00 0.00 36 1009.4
20260504225004 71 139 0.0 1.0 0.00 0.00 0.00 36 1009.5
20260504224516 72 98 0.0 19.0 0.00 0.00 0.00 35 1009.5
20260504224004 71 115 0.0 19.0 0.00 0.00 0.00 35 1009.5
20260504223503 72 119 0.0 7.0 0.00 0.00 0.00 34 1009.6
20260504223003 72 238 0.0 7.0 0.00 0.00 0.00 35 1009.5
20260504222505 72 107 0.0 9.0 0.00 0.00 0.00 35 1009.5
20260504222003 72 134 0.0 9.0 0.00 0.00 0.00 35 1009.6
20260504221505 72 134 0.0 13.0 0.00 0.00 0.00 35 1009.7
20260504221004 72 115 0.0 13.0 0.00 0.00 0.00 34 1009.7
20260504220503 73 140 0.0 7.0 0.00 0.00 0.00 34 1009.7
20260504220010 73 115 1.0 6.0 0.00 0.00 0.00 34 1009.7
20260504215504 73 131 0.0 11.0 0.00 0.00 0.00 34 1009.7
20260504215009 73 129 0.0 11.0 0.00 0.00 0.00 34 1009.7
20260504214517 73 144 0.0 12.0 0.00 0.00 0.00 33 1009.7
20260504214004 74 122 0.0 12.0 0.00 0.00 0.00 34 1009.7
20260504213511 73 120 0.0 10.0 0.00 0.00 0.00 33 1009.7
20260504213018 74 130 0.0 5.0 0.00 0.00 0.00 34 1009.8
20260504212508 74 125 0.0 6.0 0.00 0.00 0.00 33 1009.9
20260504212007 74 119 0.0 6.0 0.00 0.00 0.00 34 1009.8
20260504211503 74 115 0.0 12.0 0.00 0.00 0.00 34 1009.8
20260504211004 74 129 0.0 12.0 0.00 0.00 0.00 33 1009.9
20260504210503 74 120 0.0 8.0 0.00 0.00 0.00 33 1009.8
20260504210013 74 124 0.0 3.0 0.00 0.00 0.00 32 1009.8
20260504205504 74 133 0.0 2.0 0.00 0.00 0.00 34 1009.8
20260504205004 74 124 0.0 10.0 0.00 0.00 0.00 33 1009.8
20260504204515 73 178 0.0 10.0 0.00 0.00 0.00 33 1009.9
20260504204004 73 67 0.0 6.0 0.00 0.00 0.00 33 1009.8
20260504203505 73 47 0.0 13.0 0.00 0.00 0.00 34 1009.9
20260504203014 73 124 0.0 13.0 0.00 0.00 0.00 33 1010.0
20260504202508 73 89 1.0 12.0 0.00 0.00 0.00 32 1010.0
20260504202006 74 124 0.0 10.0 0.00 0.00 0.00 32 1010.0
20260504201522 74 110 3.0 13.0 0.00 0.00 0.00 32 1010.0
20260504201007 73 166 0.0 13.0 0.00 0.00 0.00 32 1009.9
20260504200507 73 162 0.0 11.0 0.00 0.00 0.00 33 1010.2
20260504200009 74 124 4.0 11.0 0.00 0.00 0.00 32 1010.2
20260504195506 74 94 0.0 8.0 0.00 0.00 0.00 32 1010.2
20260504195007 74 139 0.0 8.0 0.00 0.00 0.00 33 1010.3
20260504194510 74 122 0.0 13.0 0.00 0.00 0.00 31 1010.2
20260504194004 74 134 0.0 13.0 0.00 0.00 0.00 32 1010.2
20260504193506 74 107 0.0 11.0 0.00 0.00 0.00 34 1010.2
20260504193021 73 151 0.0 11.0 0.00 0.00 0.00 33 1010.3
20260504192503 73 128 0.0 13.0 0.00 0.00 0.00 33 1010.2
20260504192010 73 114 0.0 13.0 0.00 0.00 0.00 33 1010.2
20260504191517 73 130 1.0 12.0 0.00 0.00 0.00 33 1010.3
20260504191004 73 123 1.0 12.0 0.00 0.00 0.00 33 1010.4
20260504190508 73 129 0.0 10.0 0.00 0.00 0.00 32 1010.5
20260504190022 73 158 1.0 10.0 0.00 0.00 0.00 32 1010.7
20260504185508 73 117 0.0 7.0 0.00 0.00 0.00 32 1010.7
20260504185009 73 107 1.0 7.0 0.00 0.00 0.00 32 1010.8
20260504184504 73 139 0.0 13.0 0.00 0.00 0.00 33 1010.8
20260504184008 72 122 1.0 13.0 0.00 0.00 0.00 32 1010.9
20260504183505 73 77 2.0 9.0 0.00 0.00 0.00 31 1011.1
20260504183007 73 140 0.0 9.0 0.00 0.00 0.00 32 1011.0
20260504182504 73 124 1.0 13.0 0.00 0.00 0.00 31 1011.2
20260504182010 73 165 2.0 13.0 0.00 0.00 0.00 31 1011.2
20260504181513 72 124 0.0 12.0 0.00 0.00 0.00 31 1011.0
20260504181007 73 127 2.0 12.0 0.00 0.00 0.00 32 1011.2
20260504180509 72 206 0.0 12.0 0.00 0.00 0.00 32 1011.3
20260504180019 72 128 2.0 12.0 0.00 0.00 0.00 32 1011.5
20260504175507 72 148 3.0 12.0 0.00 0.00 0.00 32 1011.6
20260504175007 73 106 0.0 10.0 0.00 0.00 0.00 33 1011.6
20260504174523 72 120 0.0 10.0 0.00 0.00 0.00 31 1011.6
20260504174008 72 77 1.0 10.0 0.00 0.00 0.00 31 1011.8
20260504173509 72 61 0.0 14.0 0.00 0.00 0.00 33 1011.8
20260504173025 72 127 2.0 12.0 0.00 0.00 0.00 31 1011.8
20260504172510 71 127 0.0 7.0 0.00 0.00 0.00 32 1011.9
20260504172003 71 134 1.0 11.0 0.00 0.00 0.00 32 1012.0
20260504171531 71 94 0.0 11.0 0.00 0.00 0.00 32 1011.9
20260504171005 71 123 0.0 12.0 0.00 0.00 0.00 33 1012.1
20260504170508 71 105 1.0 15.0 0.00 0.00 0.00 31 1012.1